Temperature
25 22 21 22 23 24 25 25 25 26 26 26 25 26 26 26 26 24 22 22 22 22 22 22 22 21 20 20 20 20 20 19 19 19 19 18 18 18 18 18 19 19 19 19
22 22 24 25 27 27 26 25 25 25 26 26 25 25 25 25 25 24 22 21 21 21 22 22 21 21 21 20 20 20 20 20 19 19 19 18 18 18 18 18 18 18 18 18
23 25 27 28 27 26 25 25 24 24 24 24 24 22 22 22 23 23 21 21 22 22 22 22 21 21 21 21 21 21 20 20 20 19 19 18 18 17 17 17 17 18 17 17
25 27 27 27 26 26 24 25 25 24 22 21 23 20 20 21 21 21 21 21 22 22 22 22 22 22 22 22 21 21 21 20 20 19 18 18 17 17 16 16 16 16 17 17
25 26 26 26 27 26 25 25 24 24 22 21 21 20 20 20 20 20 20 21 22 22 22 22 23 23 22 22 22 21 21 20 20 19 18 17 17 16 16 16 16 16 16 16
26 27 27 27 27 27 26 24 22 20 18 19 21 20 19 19 20 20 20 21 22 23 23 23 23 23 22 22 21 21 20 20 19 18 17 17 16 16 15 15 15 16 16 16
24 25 26 26 26 25 24 20 18 19 18 19 20 20 19 19 20 20 21 22 23 23 23 23 23 23 22 22 21 20 20 19 19 18 17 16 16 15 15 15 15 15 15 15
23 22 25 26 25 24 25 20 18 19 18 18 19 20 19 21 22 23 23 23 23 23 24 23 23 23 22 21 21 20 20 19 18 17 16 16 15 15 14 14 14 14 14 14
23 23 25 26 27 25 24 22 19 17 19 19 19 21 21 21 21 22 22 23 23 23 23 23 23 22 22 21 21 20 20 19 18 17 16 15 15 14 14 14 14 13 13 13
23 23 23 25 26 25 24 22 18 19 19 18 19 20 20 21 21 21 21 23 23 23 23 23 23 22 22 21 21 20 20 19 17 16 15 15 14 14 13 13 13 13 12 13
22 21 21 21 22 23 23 23 20 17 16 17 17 18 20 20 21 21 21 22 23 22 22 22 22 22 22 21 21 20 20 18 17 16 15 14 14 13 13 13 12 12 12 12
21 18 18 19 21 22 23 22 19 18 18 17 16 18 20 19 19 20 20 21 21 21 21 21 21 21 21 21 21 20 19 18 17 16 15 14 14 13 13 12 12 12 12 12
20 17 17 18 18 20 21 22 21 18 16 16 17 18 18 18 18 19 19 19 18 19 19 19 20 20 20 20 20 20 19 18 17 16 15 14 14 13 13 12 12 12 12 11
20 17 17 18 18 19 20 21 21 20 17 17 18 18 16 16 16 16 16 16 16 16 16 17 17 18 18 19 19 19 19 18 17 16 15 14 14 13 13 13 12 12 12 12
19 18 19 18 19 21 21 21 22 21 19 18 17 16 16 15 15 15 14 14 14 14 14 15 15 16 17 17 18 19 19 18 18 16 15 14 14 13 13 13 12 12 12 11
18 19 20 19 20 21 20 21 20 19 18 17 16 15 15 15 15 13 13 13 12 12 13 13 14 15 15 15 16 17 18 18 18 16 15 14 14 13 13 13 12 12 11 11
18 18 18 17 19 19 18 19 17 15 14 15 13 12 12 13 13 11 11 11 11 11 11 12 12 13 13 13 14 15 16 17 17 17 15 15 14 13 13 13 12 12 11 11
17 16 15 16 18 19 18 18 16 13 11 12 11 10 10 10 11 11 11 10 10 10 11 11 11 11 12 12 13 13 15 15 16 16 16 15 14 13 13 12 12 12 11 11
17 16 16 15 17 18 18 16 16 15 10 10 9 9 9 9 11 12 11 11 10 10 10 10 10 10 10 11 11 11 12 13 14 15 15 15 14 14 13 12 12 12 11 11
16 16 16 16 17 16 14 14 15 15 10 8 8 8 8 9 9 9 10 10 10 10 10 10 10 10 10 10 10 10 10 11 12 13 14 14 14 14 13 13 12 12 11 11
17 16 16 16 15 14 11 12 14 13 10 8 9 9 8 8 8 9 9 9 9 10 10 10 10 10 9 9 9 9 9 9 10 11 12 12 13 13 13 13 12 12 11 11
15 14 15 14 15 13 10 10 9 9 9 9 9 9 8 8 9 9 9 10 10 10 10 10 10 9 9 9 9 9 8 8 9 10 10 11 12 13 13 13 12 12 12 11
14 13 12 11 11 9 10 10 10 10 9 10 9 9 9 9 9 9 10 10 10 10 10 10 10 9 9 9 9 9 8 8 8 9 9 10 11 12 12 12 12 12 12 11
13 13 11 10 9 9 10 10 10 10 10 10 10 9 9 9 9 9 9 9 9 9 10 10 10 9 9 9 9 8 8 8 8 8 8 9 10 11 11 12 12 12 12 11
10 10 10 9 9 10 10 11 11 11 10 10 9 9 9 9 9 9 9 9 9 9 9 9 9 9 9 9 9 8 8 8 7 7 8 8 9 10 11 12 12 12 12 12
9 8 8 8 9 9 10 11 11 10 10 10 9 9 9 9 8 8 8 8 8 8 9 9 9 9 9 9 8 8 8 8 7 7 8 8 8 9 10 11 12 12 12 12
Wind_Speed
3 2 5 8 9 10 7 4 5 6 9 8 6 2 2 4 7 10 10 10 10 9 6 6 6 6 5 5 4 3 3 3 3 2 2 2 3 4 5 6 7 9 10 10
4 6 13 11 5 3 5 4 3 5 9 8 8 7 7 5 2 8 12 12 11 8 5 5 5 4 3 3 3 4 4 4 4 4 4 4 4 5 5 6 6 8 9 9
8 8 5 1 5 7 7 3 2 2 4 5 5 7 7 7 6 7 11 10 10 10 10 8 7 5 5 5 7 7 8 8 7 7 4 2 2 3 4 6 7 8 7 8
3 3 2 3 5 5 4 3 6 8 7 4 3 3 7 3 7 7 8 9 9 9 8 8 8 8 9 9 9 9 9 8 7 6 4 4 4 5 6 6 7 9 9 9
4 4 3 2 4 4 1 3 6 6 6 6 5 0 6 1 4 5 7 8 9 9 10 11 11 12 11 10 9 8 7 5 4 3 3 3 4 5 5 7 9 10 10 10
4 3 2 2 2 3 3 8 9 7 5 2 5 3 6 4 6 6 5 7 9 10 11 11 12 10 9 7 6 5 5 3 2 2 1 1 3 5 7 9 9 10 9 9
6 5 3 1 3 5 7 7 5 7 6 5 4 1 6 7 5 8 9 11 11 11 10 10 10 9 8 6 5 4 5 4 2 3 2 2 2 4 6 8 9 11 10 9
2 5 4 2 3 4 2 8 6 3 4 6 4 1 6 6 7 10 10 11 11 11 9 9 9 8 7 7 7 6 6 5 4 3 2 1 2 3 5 7 8 9 9 9
1 4 7 8 3 7 3 2 9 7 2 3 4 2 4 6 6 8 9 9 10 10 8 6 6 8 8 8 8 8 8 6 5 5 3 1 1 3 5 7 7 7 7 7
3 3 6 7 5 2 3 6 6 4 1 4 6 4 4 7 7 7 8 8 7 6 5 6 7 8 8 8 7 8 8 8 7 6 5 3 1 2 4 5 7 7 6 5
4 2 7 7 3 4 3 2 4 4 5 5 5 7 8 10 8 7 6 5 3 2 2 4 6 8 8 7 8 8 8 7 6 6 5 4 2 1 2 4 5 6 5 5
4 4 3 8 8 6 3 3 6 3 6 6 4 9 9 2 2 5 7 7 7 7 6 5 5 7 7 8 8 9 8 8 8 7 6 6 4 3 2 3 4 5 5 6
6 6 4 10 10 8 6 4 2 3 3 4 4 6 9 11 12 10 10 10 10 12 13 11 8 5 7 8 9 9 9 9 8 8 8 7 6 5 4 4 4 4 5 6
6 5 6 5 7 7 9 13 13 7 5 7 8 1 9 10 10 11 11 11 11 13 14 16 15 11 8 7 8 9 9 9 8 8 8 8 8 8 7 5 4 4 4 4
6 4 6 8 9 8 11 14 15 13 10 8 4 7 5 7 8 10 11 13 15 15 16 16 15 15 13 12 10 9 10 9 9 9 9 9 9 8 7 6 5 3 3 3
3 5 3 5 7 9 10 10 7 8 8 8 10 7 7 7 8 12 13 14 14 14 15 15 15 16 16 16 16 13 12 10 9 10 10 9 8 8 8 7 6 4 3 2
2 5 2 4 7 6 5 6 6 8 10 6 6 6 11 11 11 10 12 14 15 15 15 16 15 14 15 15 16 17 15 11 9 10 9 9 9 9 8 8 7 6 4 3
7 5 5 2 3 2 1 6 11 13 13 13 10 11 14 16 13 4 11 13 15 16 17 16 14 14 13 13 14 17 17 11 9 9 9 10 10 10 9 8 8 7 5 5
7 8 5 4 3 6 3 6 6 1 7 12 11 12 14 15 13 5 9 10 10 12 12 11 11 11 11 13 13 14 17 14 10 8 9 11 12 11 10 10 9 7 6 5
7 5 5 3 4 5 3 11 16 2 4 7 8 10 12 13 12 10 14 17 17 15 12 12 11 10 11 12 12 12 13 14 14 12 9 10 12 13 12 11 9 7 6 6
6 6 2 3 5 0 7 13 11 4 5 8 9 11 11 8 10 13 16 18 17 16 15 14 13 11 10 10 10 11 11 11 13 14 11 9 11 13 12 11 8 8 8 8
3 4 4 3 3 3 9 7 5 3 7 10 12 13 13 14 16 18 18 17 17 16 15 14 12 12 10 8 7 10 12 11 11 13 12 9 10 12 11 12 11 10 11 10
5 3 1 3 2 2 1 4 6 8 9 11 13 15 16 18 20 20 19 18 18 17 16 13 13 13 11 9 7 8 11 12 11 12 12 10 10 11 11 13 14 11 11 10
6 6 5 5 3 3 4 4 7 10 14 16 17 18 18 20 22 21 19 18 17 17 16 14 13 13 12 11 10 9 9 9 11 11 10 10 9 10 11 12 12 13 13 12
6 6 5 3 3 5 7 10 14 14 15 17 18 18 18 19 21 21 19 18 17 16 15 13 12 13 13 11 11 11 11 9 9 10 9 9 9 10 12 12 13 15 14 15
4 3 2 2 5 6 11 14 17 17 16 17 17 16 15 15 18 19 16 15 15 15 15 14 13 12 12 11 10 11 11 10 8 8 8 8 8 8 9 12 11 15 14 18
Wind_Direction
282 117 249 243 215 210 239 284 324 337 356 41 52 84 171 182 159 157 153 142 133 131 137 128 125 124 121 126 139 163 177 183 170 175 205 240 260 266 273 269 270 276 277 273
347 263 242 241 265 310 319 343 360 355 5 27 10 350 346 351 265 179 160 147 139 137 146 155 154 144 144 166 186 197 206 210 198 193 201 210 229 254 262 273 282 280 280 277
226 245 234 286 350 356 341 31 42 12 13 28 34 342 336 338 36 106 135 143 150 163 175 184 185 189 182 192 199 199 204 206 207 206 202 228 267 287 289 291 288 283 280 278
263 314 33 26 335 341 324 7 32 12 18 320 57 304 302 342 65 101 134 154 172 181 184 188 191 198 202 203 196 190 192 197 207 203 202 225 247 266 270 276 280 286 283 279
333 349 21 357 322 352 259 35 19 344 333 328 335 42 282 15 140 165 162 172 186 188 188 194 200 205 209 203 193 189 186 197 204 190 197 229 263 273 286 292 291 291 289 280
292 318 342 302 325 12 54 29 2 17 51 340 274 200 281 250 206 185 191 198 203 199 201 206 212 212 213 202 186 178 172 185 172 132 109 75 310 309 312 309 303 298 293 287
330 324 314 320 341 4 62 66 19 356 6 273 269 143 271 272 193 180 198 212 218 218 215 218 221 219 212 197 191 181 173 178 150 113 85 50 346 323 309 306 304 301 297 290
2 310 307 306 212 184 172 130 148 211 255 285 330 174 255 262 189 193 203 212 222 229 229 229 224 206 195 190 189 183 181 181 170 151 138 71 349 321 306 303 302 298 294 288
97 287 315 327 288 152 164 168 168 148 264 300 303 241 268 276 240 213 213 217 224 226 220 209 190 181 182 187 191 189 186 189 188 179 171 167 308 312 311 312 308 305 305 306
113 276 300 323 352 346 163 157 89 99 200 276 294 296 238 240 241 225 211 204 207 198 180 172 179 184 188 191 193 191 191 197 197 189 183 172 191 290 308 317 321 319 322 337
93 86 317 346 345 285 312 240 138 145 170 177 263 272 238 222 215 210 209 188 163 143 178 222 215 203 197 193 193 198 205 206 201 199 191 177 190 234 297 318 324 325 338 352
121 105 310 286 278 267 199 189 150 168 247 201 214 271 297 290 37 68 64 59 44 24 355 317 262 221 208 205 205 208 211 210 210 203 193 190 192 203 254 287 305 320 338 347
118 93 9 343 344 1 8 344 308 196 173 207 221 270 6 50 53 52 55 46 34 22 14 4 344 292 244 225 217 216 216 216 212 197 193 194 197 203 227 252 275 305 327 338
107 118 158 212 252 285 305 308 307 297 264 252 232 198 17 26 34 33 33 31 29 26 22 15 6 347 319 281 244 227 223 216 203 193 193 198 204 205 213 229 251 281 307 321
99 161 208 225 247 266 284 291 292 285 262 232 140 102 42 11 27 38 32 27 26 21 17 12 6 358 347 331 300 262 237 222 202 192 196 205 206 203 203 211 227 254 286 304
117 175 216 283 277 289 294 314 341 19 24 83 96 65 359 352 34 40 28 26 22 13 6 2 360 358 353 343 328 299 262 234 205 196 201 203 198 197 197 197 201 211 247 285
212 167 168 272 301 345 358 4 81 69 29 45 58 21 358 359 16 39 24 18 10 0 355 352 349 346 343 340 340 327 292 254 214 203 200 194 193 196 197 188 183 191 206 210
185 156 157 210 3 307 206 56 101 96 54 37 37 18 8 350 331 46 33 8 350 342 339 338 333 331 332 334 337 340 332 293 240 210 199 194 190 195 192 181 182 188 189 191
174 151 145 153 209 256 122 25 353 169 67 27 22 8 356 342 326 296 354 337 316 310 310 309 310 311 316 325 331 335 345 334 295 245 210 198 191 190 187 186 185 183 180 187
48 83 129 170 219 248 333 336 328 62 86 21 1 337 330 340 334 311 318 318 313 309 308 307 307 312 316 319 323 329 337 344 330 302 255 214 193 189 190 190 182 173 173 182
356 359 345 257 252 131 342 328 340 7 314 307 300 298 300 291 269 280 292 294 289 289 292 294 295 297 298 306 319 322 324 327 328 321 295 242 205 194 190 184 176 170 170 170
43 12 348 345 308 323 357 21 53 251 258 267 280 283 282 275 273 276 279 280 281 282 282 283 283 281 279 284 302 312 312 310 319 325 315 273 225 205 195 181 180 175 172 173
48 13 50 57 84 154 102 156 212 231 258 272 275 277 276 278 280 280 280 280 281 279 277 277 275 278 279 275 275 288 298 305 312 319 322 302 248 216 196 186 184 179 178 180
15 16 97 87 123 211 232 251 253 250 258 270 275 279 280 280 283 284 285 284 281 278 275 274 271 273 276 271 264 261 271 286 296 303 310 311 278 230 207 193 187 186 187 187
8 11 57 64 330 312 282 286 284 283 284 289 291 289 287 288 291 292 292 289 286 283 279 274 269 270 271 270 266 265 264 263 274 286 299 306 289 246 214 199 193 191 193 191
15 47 64 272 263 265 278 281 288 295 296 296 297 298 298 296 295 295 293 290 290 289 285 278 272 268 266 261 260 265 266 256 253 273 290 299 296 266 225 203 197 202 193 189
Height
1512 1517 1521 1515 1512 1513 1511 1513 1514 1505 1495 1495 1499 1499 1497 1496 1496 1498 1500 1502 1504 1506 1509 1511 1512 1513 1516 1518 1519 1520 1520 1520 1520 1519 1518 1517 1515 1513 1512 1511 1509 1508 1506 1505
1518 1519 1508 1504 1502 1503 1506 1512 1513 1506 1498 1499 1503 1502 1498 1497 1496 1497 1499 1501 1503 1506 1509 1510 1512 1513 1515 1516 1517 1517 1517 1517 1516 1515 1514 1512 1510 1507 1506 1504 1502 1500 1499 1497
1518 1508 1499 1500 1502 1506 1508 1512 1512 1511 1506 1504 1507 1514 1507 1500 1496 1497 1500 1503 1505 1507 1508 1510 1511 1512 1513 1513 1514 1513 1513 1512 1511 1510 1509 1507 1504 1502 1500 1498 1495 1494 1492 1490
1506 1500 1499 1502 1504 1505 1514 1505 1504 1506 1515 1523 1516 1533 1516 1505 1502 1500 1502 1504 1505 1507 1508 1509 1509 1510 1510 1509 1509 1509 1508 1508 1506 1505 1503 1501 1499 1496 1494 1491 1489 1487 1485 1483
1508 1503 1503 1505 1503 1502 1506 1500 1503 1506 1513 1521 1517 1528 1522 1507 1508 1504 1503 1504 1505 1505 1506 1506 1506 1506 1505 1505 1505 1505 1504 1503 1502 1500 1498 1496 1494 1491 1488 1486 1483 1480 1478 1476
1504 1500 1501 1501 1499 1499 1500 1504 1509 1515 1524 1537 1523 1528 1527 1514 1507 1505 1504 1504 1503 1503 1503 1503 1502 1502 1502 1503 1503 1502 1502 1500 1499 1497 1494 1492 1489 1486 1483 1480 1476 1473 1470 1467
1512 1505 1500 1499 1503 1503 1505 1526 1545 1545 1549 1543 1522 1526 1527 1506 1500 1500 1500 1500 1500 1500 1500 1499 1500 1500 1500 1501 1501 1500 1499 1497 1495 1493 1491 1489 1486 1483 1479 1475 1471 1467 1463 1460
1524 1524 1505 1501 1504 1508 1507 1522 1547 1555 1556 1545 1527 1528 1518 1501 1496 1496 1496 1496 1497 1497 1497 1497 1497 1497 1498 1498 1498 1498 1496 1494 1492 1490 1488 1485 1482 1479 1476 1471 1467 1462 1458 1454
1523 1522 1504 1499 1497 1500 1508 1516 1521 1539 1538 1543 1534 1520 1509 1501 1498 1495 1494 1494 1494 1494 1494 1494 1494 1494 1495 1495 1495 1494 1493 1490 1488 1486 1484 1481 1479 1476 1472 1468 1463 1459 1454 1451
1513 1521 1510 1502 1499 1499 1502 1509 1525 1535 1546 1552 1539 1528 1521 1504 1499 1495 1492 1492 1491 1491 1492 1492 1492 1492 1493 1492 1492 1491 1490 1487 1485 1483 1480 1478 1476 1473 1470 1466 1461 1457 1453 1449
1509 1522 1520 1511 1510 1511 1508 1510 1518 1532 1539 1549 1551 1537 1503 1498 1493 1491 1490 1490 1492 1493 1493 1493 1492 1491 1490 1489 1489 1488 1486 1484 1482 1480 1477 1475 1473 1470 1467 1464 1460 1456 1453 1450
1510 1524 1530 1520 1507 1501 1504 1508 1519 1533 1534 1535 1541 1530 1495 1492 1492 1492 1493 1495 1496 1496 1495 1493 1491 1489 1487 1486 1485 1484 1483 1480 1478 1476 1474 1472 1470 1468 1465 1463 1460 1457 1454 1452
1511 1526 1540 1533 1523 1510 1509 1506 1509 1518 1527 1533 1537 1527 1503 1498 1497 1497 1497 1497 1497 1495 1493 1491 1489 1487 1485 1483 1482 1481 1479 1476 1474 1472 1470 1469 1467 1465 1463 1462 1460 1457 1455 1453
1507 1523 1535 1540 1533 1521 1517 1509 1504 1511 1525 1525 1520 1517 1513 1507 1504 1502 1501 1499 1497 1495 1492 1490 1488 1486 1484 1482 1480 1477 1475 1472 1469 1468 1466 1465 1464 1462 1461 1460 1459 1457 1456 1454
1508 1521 1521 1521 1515 1512 1510 1506 1501 1503 1503 1510 1513 1517 1516 1512 1509 1507 1504 1501 1498 1495 1493 1490 1488 1485 1483 1480 1477 1474 1471 1468 1465 1463 1462 1461 1460 1459 1458 1457 1457 1456 1456 1454
1508 1515 1515 1517 1510 1508 1507 1503 1500 1504 1505 1508 1513 1519 1516 1513 1510 1508 1505 1503 1501 1498 1495 1491 1488 1484 1481 1478 1473 1469 1466 1463 1460 1457 1457 1457 1456 1456 1455 1454 1455 1455 1455 1455
1509 1514 1519 1525 1513 1511 1517 1510 1511 1517 1519 1516 1522 1526 1520 1515 1513 1511 1508 1504 1502 1498 1495 1491 1488 1483 1478 1474 1469 1464 1460 1458 1455 1452 1451 1451 1452 1452 1451 1451 1452 1453 1454 1454
1505 1513 1521 1524 1520 1525 1520 1510 1512 1521 1527 1526 1527 1527 1524 1521 1516 1511 1506 1504 1500 1497 1493 1489 1486 1481 1476 1470 1464 1458 1453 1450 1449 1447 1446 1446 1446 1447 1447 1447 1448 1450 1452 1453
1496 1508 1519 1527 1527 1520 1513 1514 1515 1517 1530 1531 1530 1528 1524 1519 1512 1508 1504 1501 1497 1493 1490 1486 1482 1477 1472 1467 1460 1454 1449 1444 1443 1442 1440 1440 1441 1442 1443 1443 1444 1447 1450 1452
1501 1505 1516 1522 1526 1529 1526 1519 1514 1515 1529 1532 1528 1524 1520 1514 1511 1504 1499 1495 1491 1487 1483 1478 1474 1470 1466 1461 1456 1450 1445 1440 1437 1435 1434 1434 1434 1435 1437 1438 1440 1443 1446 1450
1514 1516 1519 1522 1525 1523 1532 1523 1515 1524 1531 1529 1524 1521 1517 1515 1511 1502 1496 1491 1487 1482 1477 1473 1468 1464 1460 1455 1451 1446 1441 1436 1432 1428 1426 1426 1428 1429 1431 1433 1435 1438 1443 1447
1523 1526 1525 1525 1527 1533 1533 1529 1532 1536 1529 1525 1521 1517 1513 1507 1501 1495 1488 1483 1478 1473 1469 1465 1460 1456 1453 1449 1444 1440 1435 1431 1426 1421 1418 1417 1419 1422 1424 1427 1430 1433 1438 1443
1524 1527 1527 1532 1537 1538 1534 1533 1532 1529 1525 1520 1515 1510 1505 1498 1492 1486 1480 1475 1470 1465 1460 1456 1452 1447 1444 1442 1437 1433 1428 1424 1420 1416 1411 1409 1410 1413 1416 1419 1423 1426 1431 1437
1527 1525 1529 1534 1536 1535 1533 1530 1527 1523 1519 1513 1508 1503 1498 1491 1484 1478 1471 1466 1460 1455 1451 1447 1442 1438 1435 1433 1430 1425 1421 1417 1414 1410 1406 1402 1401 1403 1407 1411 1415 1419 1423 1429
1535 1532 1533 1538 1537 1534 1531 1527 1522 1517 1512 1507 1502 1497 1491 1484 1476 1469 1462 1456 1451 1445 1440 1436 1432 1428 1425 1423 1420 1417 1414 1409 1406 1403 1399 1395 1392 1393 1397 1401 1406 1410 1415 1420
1538 1540 1541 1541 1536 1534 1528 1522 1516 1511 1505 1500 1494 1488 1482 1477 1469 1461 1454 1448 1442 1436 1431 1426 1422 1419 1416 1413 1411 1408 1405 1402 1398 1395 1391 1387 1384 1383 1387 1392 1397 1403 1408 1414